Weather in Kovran

Russia / Kamchatka Krai     57°12′03″N   156°53′23″E
temp.,
°C
wind,
m/s
gust,
m/s
humid.,
%
clouds,
%
prec.,
mm/h
press.,
hPa
HPBL,
m
16 may, sun
sun1600:00+2ssw2379100 0.0 102439
03:00+1s227593 0.0 102215
06:00+1se217450 0.0 102110
09:00+6sse2364100 0.0 1020372
12:00+10ssw4553100 0.0 10181085
15:00+11sw4649100 0.0 10161338
18:00+10sw4651100 0.0 10141327
21:00+8n0165100 0.0 101212
17 may, mon
mon1700:00+6wsw2267100 0.0 101032
03:00+4wsw2481100 0.0 1009317
06:00+3s1292100 0.4 1007185
09:00+5se2783100 1.1 1006559
12:00+7sse7874100 1.6 10041033
15:00+5s71689100 2.8 10041216
18:00+4ssw111792100 4.6 1003886
21:00+4ssw71396100 1.1 1003955
18 may, tue
tue1800:00+4s51297100 3.0 1003891
03:00+4sse2798100 2.0 1003886
06:00+3sse2798100 5.1 1002836
09:00+3sse2698100 2.1 1003786
12:00+3ssw4797100 3.8 1004663
15:00+2sw5897100 0.7 1004657
18:00+2s3599100 2.1 1003330
21:00+2ese41198100 4.3 1001437
19 may, wed
wed1900:00+4ssw91494100 7.7 10001115
03:00+1ssw91498100 0.6 1001797
06:000ssw111698100 1.7 1002706
09:00+1sw111597100 0.6 1004768
12:00+1sw101392100 0.9 1006852
15:00+3sw91084100 0.1 1007901
18:00+3sw5882100 0.1 1007663
21:00+2wsw1286100 0.0 1007255
20 may, thu
thu2000:00+2ene2290100 0.3 100667
03:00+2e1194100 1.4 100333
06:00+3sse41196100 3.3 1001736
09:00+3ssw121597100 0.8 1001788
12:00+2sw81399100 1.3 1003552
15:00+2sw101497100 0.8 1004754
18:00+1sw91399100 2.0 1005578
21:000wsw81298100 1.1 1007546